Regional Weather Roundup
Issued by NWS

Home | Current Version | Previous Version | Graphics & Text | Print | Product List | Glossary On
Versions: 1 2 3 4 5 6 7 8 9 10 11 12 13 14 15 16 17 18 19 20 21 22 23 24 25 26 27 28 29 30 31 32 33 34 35 36 37 38 39 40 41 42 43 44 45 46 47 48 49 50
031
ASUS43 KMKX 080921
RWRWI

WISCONSIN REGIONAL WEATHER ROUNDUP
NATIONAL WEATHER SERVICE MILWAUKEE/SULLIVAN WI
300 AM CST MON FEB 08 2016

NOTE: "FAIR" INDICATES FEW OR NO CLOUDS BELOW 12,000 FEET WITH NO
SIGNIFICANT WEATHER AND/OR OBSTRUCTIONS TO VISIBILITY.

WIZ001-002-006>008-014>016-023>028-081000-
NORTHWEST WISCONSIN

CITY           SKY/WX    TMP DP  RH WIND       PRES   REMARKS
SUPERIOR ARPT  LGT SNOW  15   9  79 NW13G18   29.76R WCI   1
ASHLAND        LGT SNOW  24  22  91 N14       29.67R FOG     WCI  12
HAYWARD        LGT SNOW  17  13  84 MISG      29.67R FOG
SIREN          LGT SNOW  14  10  81 NW14      29.74S WCI   0
CUMBERLAND     FLURRIES  14  10  85 NW16      29.68S WCI  -2
RICE LAKE      FLURRIES  17  11  79 NW9       29.70S WCI   5
CHETEK         LGT SNOW  17  12  82 MISG      29.68R
LADYSMITH      LGT SNOW  21  17  84 NW14      29.64R WCI   8
EAU CLAIRE     FLURRIES  18  11  74 NW13      29.68S WCI   5
MENOMONIE      FLURRIES  18  11  74 NW15G22   29.71R WCI   4
NEW RICHMOND   LGT SNOW  15  10  79 NW17G23   29.74S WCI  -1
OSCEOLA        FLURRIES  15  10  80 NW15G23   29.79S WCI   0
$$

WIZ003>005-009-010-017-018-081000-
NORTH CENTRAL WISCONSIN

CITY           SKY/WX    TMP DP  RH WIND       PRES   REMARKS
MANITOWISH WTR LGT SNOW  26  26 100 N3        29.52R
ARBOR VITAE    LGT SNOW  27  24  89 W5        29.52S WCI  21
WOODRUFF       LGT SNOW  27  24  89 W5        29.52S WCI  21
RHINELANDER    LGT SNOW  26  23  88 W8        29.52S FOG     WCI  18
EAGLE RIVER    LGT SNOW  27  26  94 W5        29.51S WCI  22
LAND O LAKES   LGT SNOW  28  27  95 CALM      29.52S
PHILLIPS       LGT SNOW  22  19  91 NW6       29.56S WCI  14
TOMAHAWK       FLURRIES  24  21  87 W6        29.55S WCI  17
MEDFORD        LGT SNOW  21  19  90 NW9       29.57S WCI  11
MERRILL        LGT SNOW  26  23  89 NW8       29.56S WCI  17
$$

WIZ029-030-035-036-043>047-081000-
CENTRAL WISCONSIN

CITY           SKY/WX    TMP DP  RH WIND       PRES   REMARKS
WAUSAU         CLOUDY    27  21  78 NW15      29.55S WCI  15
MOSINEE        CLOUDY    27  25  93 NW12      29.57S WCI  16
MARSHFIELD     LGT SNOW  22  16  78 NW13      29.58R WCI  10
STEVENS POINT  CLOUDY    25  20  83 W8        29.58S WCI  16
WAUPACA        CLOUDY    32  25  76 W9        29.58S WCI  24
WAUTOMA        CLOUDY    29  24  81 NW13      29.59S WCI  19
WISC RAPIDS    CLOUDY    25  19  78 NW12      29.61R WCI  14
CAMP DOUGLAS   LGT SNOW  23  23 100 NW12      29.63S FOG     WCI  12
$$

WIZ011>013-019>022-031-037>040-048>050-081000-
NORTHEAST WISCONSIN

CITY           SKY/WX    TMP DP  RH WIND       PRES   REMARKS
ANTIGO         CLOUDY    27  24  89 W12       29.52S WCI  16
SHAWANO        CLOUDY    36  30  81 W5        29.55R WCI  32
OCONTO         CLOUDY    33  29  86 SW3       29.54S
STURGEON BAY   CLOUDY    34  27  75 SW6       29.56S WCI  29
GREEN BAY      CLOUDY    34  29  82 S3        29.55S
MANITOWOC      CLOUDY    33  28  81 SW6       29.56F WCI  28
APPLETON       CLOUDY    32  32 100 W12       29.54S WCI  23
CLINTONVILLE   CLOUDY    32  28  86 W5        29.56R WCI  27
OSHKOSH        CLOUDY    32  27  81 NW14      29.56S WCI  22
$$

WIZ032>034-041-042-053>061-081000-
SOUTHWEST WISCONSIN

CITY           SKY/WX    TMP DP  RH WIND       PRES   REMARKS
LA CROSSE      FLURRIES  20  13  74 NW17      29.69S WCI   5
SPARTA         LGT SNOW  22  18  85 NW13G18   29.67S WCI   9
VIROQUA        CLOUDY    19  18  93 NW12      29.64R WCI   7
BOSCOBEL       LGT SNOW  24  21  88 W8        29.68R FOG     WCI  15
PRAIRIE DU CHI MIX PCPN  22  16  77 W17G24    29.70S WCI   8
PLATTEVILLE    CLOUDY    26  22  83 W16       29.64F WCI  13
$$

WIZ056-057-062-063-064-067-068-081000-
SOUTH CENTRAL WISCONSIN

CITY           SKY/WX    TMP DP  RH WIND       PRES   REMARKS
REEDSBURG      CLOUDY    27  21  78 NW14G21   29.61S WCI  16
BARABOO/DELLS  CLOUDY    28  21  75 NW10      29.60S WCI  19
LONE ROCK      CLOUDY    27  18  69 W16       29.64S WCI  15
MINERAL POINT  CLOUDY    28  19  69 NW15G24   29.62S WCI  17
MADISON        CLOUDY    32  27  81 NW8       29.59R WCI  25
MIDDLETON      CLOUDY    32  28  86 W13       29.60S WCI  22
WATERTOWN      LGT SNOW  32  32 100 SW7       29.57F WCI  26
MONROE         CLOUDY    30  21  69 W15G24    29.60S WCI  19
JANESVILLE     FLURRIES  34  32  93 W13       29.59F WCI  25
$$

WIZ051-052-058>065-066-070>072-081000-
SOUTHEAST WISCONSIN

CITY           SKY/WX    TMP DP  RH WIND       PRES   REMARKS
MILWAUKEE      MOCLDY    31  27  85 SW7       29.59F WCI  24
WAUKESHA       CLOUDY    30  28  93 SW5       29.58F WCI  25
MILWAUKEE/TIMM CLOUDY    32  27  80 SW3       29.59F
RACINE         PTCLDY    30  25  81 SW6       29.61F WCI  24
BURLINGTON     CLOUDY    30  27  89 SW7       29.59F WCI  23
KENOSHA        MOCLDY    31  27  85 SW8       29.60F WCI  23
FOND DU LAC    LGT SNOW  32  30  92 NW14      29.56S FOG     WCI  22
SHEBOYGAN      CLOUDY    31  26  82 SW6       29.56F WCI  25
WEST BEND      CLOUDY    32  28  86 CALM      29.57F
JUNEAU         LGT SNOW  32  31  97 W15       29.57F WCI  21
$$

LSZ147-162-081000-
LAKE SUPERIOR

STATION/POSITION TIME  TEMP    WIND        PRES    WAVE
                       AIR SEA DIR/SP/G            HT/PER
                 (UTC) (F)     (DEG/KT/KT) (MB)    (FT/S)
DEVILS ISLAND    0900   21     350/ 21/ 24 1006.3R
PORT WING        0840   24     340/ 19/ 24 1006.1R
SAXON HARBOR     0800   27                 1003.4R
$$

LMZ867-665-643>646-081000-
LAKE MICHIGAN

STATION/POSITION TIME  TEMP    WIND        PRES    WAVE
                       AIR SEA DIR/SP/G            HT/PER
                 (UTC) (F)     (DEG/KT/KT) (MB)    (FT/S)
CHAMBERS ISLAND  0800   34     170/  4/  7 1001.0S
NORTHPORT PIER   0800   35      CALM  /  4 1000.7F
KEWAUNEE LAKESHO 0900   34     240/  5/ 10 1000.2F
SHEBOYGAN LAKESH 0900   33     240/  8/  9 1001.8F
PORT WASHINGTON  0800   32     250/  4/  8 1003.0
MILWAUKEE LAKESH 0910   32     240/ 11/ 12   N/A
KENOSHA   LAKESH 0900   32     240/  7/ 10 1003.0F
$$

TC  - TEMPERATURE IN CELSIUS
VSB - VISIBILITY IN STATUTE MILES
WCI - WIND CHILL INDEX
HX  - HEAT INDEX





USA.gov is the U.S. government's official web portal to all federal, state and local government web resources and services.